SL-14 DEB, 45314

Orbit data source: Space-Track

SL-14 DEB, 45314 is space debris in LEO originally from a launch on Thu, 15 Aug 1991 UTC launched from the Plesetsk Missile And Space Complex (PKMTR). Debris objects in space refer to the collection of defunct objects orbiting the Earth. Examples of debris include non-operational satellites, rocket bodies, and fragments generated from explosions, collisions, or faulty payload assembly.

Loading next visibility...
Identifier
45314, 1991-056BC
Orbit
LEO
Country
Flag of CISCIS
Related business
Manufacturer
Unknown
Mission
Spacecraft
Bus & Motor
Unknown
Mass
Unknown
Launch date (UTC)
1991-08-15 (34 years ago)
Launch vehicle
Unknown
Launch site
Plesetsk Missile And Space Complex (PKMTR)
Object type
Payload
Rocket body
Debris
Shape & HBR
Unknown shape, 0.1 m
Radar Cross Section
Small (<0.1 m²)

Expand to show TLE details & history
Last TLE update: 16 hours ago

TLE from 16 hours ago
0 SL-14 DEB
1 45314U 91056BC  25350.27128887  .00000935  00000-0  26615-2 0  9995
2 45314  82.5372 286.2930 0052747  17.7082 342.5859 13.09454890277348
Epoch: 2025-12-16T06:30Z
TLE epoch observation values (Epoch: 2025-12-16T06:30:39.358Z)
Latitude
-0.00001°
Longitude
103.47111°
Altitude
1,189.809 km
Speed
7.277 km/s
True Right ascension
19h 05m 10s
True Declination
0° 00' 00"
Sunlit
Object was in daylight at epoch
Visualization orbit readout
Latitude
Unknown
Longitude
Unknown
Altitude
Unknown
Speed
Unknown
Apparent Right ascension
Unknown
Apparent Declination
Unknown
Sunlit
N/A
Visualization observer readout
Local Sidereal Time
21:38:31
Azimuth
Unknown
Elevation
Unknown
Doppler factor
Unknown
Orbital elements
Apogee altitude
1,262.615 km
Perigee altitude
1,182.433 km
Semi-major axis
7,600.661 km
Eccentricity
0.00527
Inclination
82.5372°
RAAN
286.293°
Arg. of periapsis
17.7082°
True anomaly
342.40386°
Mean anomaly
342.5859°
Eccentric anomaly
342.495°
Mean motion
3.27541 °/min
Orbital period
109.91 mins
BSTAR
0.0026615
Loading maneuver chart data...
Computing Atmospheric mass density...
Loading historical data...
Loading historical data...
Loading historical data...
Loading historical data...
Loading historical data...
Loading historical data...
Loading historical data...

Documentation

Showing up to 5 results
|